Terminal Aerodrome Forecast
Issued by NWS Boston, MA

Home | Current Version | Previous Version | Text Only | Print | Product List | Glossary Off
Versions: 1 2 3 4 5 6 7 8 9 10 11 12 13 14 15 16 17 18 19 20 21 22 23 24 25 26 27 28 29 30 31 32 33 34 35 36 37 38 39 40 41 42 43 44 45 46 47 48 49 50
000 FTUS41 KBOX 112108 AAA TAFBOS TAF AMD KBOS 112108Z 1121/1224 29017G28KT P6SM SCT040 BKN080 FM112300 29017G27KT P6SM SCT060 FM121100 28011G18KT P6SM FEW250 FM121700 24008KT P6SM SCT150 FM122100 21009KT P6SM BKN120=

USA.gov is the U.S. government's official web portal to all federal, state and local government web resources and services.